Location: New Plymouth
(39.0670°S, 174.0830°E)
Time: 13:03:15
(UTC+13:00)

Daily predictions for brighter satellites

Satellite Brightness Start Highest point End
(mag) Time Altitude Azimuth Time Altitude Azimuth Time Altitude Azimuth
Lacrosse 5 2.2 21:11:28 10° SW 21:16:35 61° SE 21:21:39 10° NE
Cosmos 1805 Rocket 3.8 21:13:25 10° S 21:17:50 76° W 21:22:11 10° N
Cosmos 2228 Rocket 4.5 21:14:35 10° NE 21:17:52 21° E 21:21:11 10° SE
MOS 1 4.3 21:13:52 10° SSE 21:19:40 74° ENE 21:25:23 10° N
DELTA 2 R/B(2) 3.6 21:16:52 10° WNW 21:19:58 52° NNE 21:21:38 10° E
Cosmos 2322 Rocket 2.9 21:15:20 10° NNE 21:20:19 33° ENE 21:25:22 10° SE
Cosmos 1741 Rocket 4.1 21:16:46 10° NNW 21:22:06 89° ENE 21:27:32 10° SSE
Cosmos 1455 4.4 21:19:30 10° NW 21:23:00 31° WSW 21:26:33 10° SSW
ADEOS Rocket 3.9 21:19:32 10° ENE 21:24:08 27° ESE 21:28:40 10° S
CZ-2D R/B 3.5 21:24:40 10° S 21:28:39 79° WSW 21:32:34 10° NNW
USA 186 2.1 21:26:34 10° SSE 21:29:13 32° E 21:31:41 10° NNE
Cosmos 1184 Rocket 4.2 21:26:06 10° NNW 21:29:21 43° WSW 21:32:38 10° S
Cosmos 1515 Rocket 4.3 21:26:03 10° NNE 21:30:08 35° E 21:34:16 10° SSE
Cosmos 1939 Rocket 2.9 21:30:01 10° SSE 21:34:15 76° ENE 21:38:25 10° N
Envisat 4.1 21:29:31 10° S 21:34:29 50° WSW 21:39:24 10° NW
NOAA 11 4.4 21:32:17 10° SSE 21:37:45 55° E 21:43:09 10° N
USA 32 4.2 21:32:53 10° N 21:38:08 82° W 21:43:29 10° S
Meteor 2-10 Rocket 4.0 21:34:54 10° NNW 21:39:58 66° WSW 21:45:17 10° S
Cosmos 2227 4.2 21:34:52 10° SSW 21:40:36 73° ESE 21:46:05 11° NNE
Resurs 01 Rocket 2.8 21:39:12 10° SE 21:42:52 24° E 21:45:44 13° NE
Cosmos 292 Rocket 4.1 21:38:40 10° SSW 21:43:27 68° WNW 21:48:13 10° N
Cosmos 2263 Rocket 2.7 21:39:16 10° S 21:44:43 45° ESE 21:49:12 15° NE
Aureole 3 Rocket 2.8 21:44:58 10° S 21:48:30 80° E 21:53:06 10° N
CZ-2C R/B 3.0 21:48:35 13° NE 21:53:18 51° ESE 21:58:31 10° S
Cosmos 1151 Rocket 2.9 21:50:43 10° N 21:55:01 82° E 21:59:24 10° S
Resurs 1-3 4.1 21:51:51 10° SSE 21:56:04 40° E 21:59:43 13° NNE
Cosmos 2208 Rocket 4.0 21:59:22 10° SSW 22:04:37 86° WNW 22:09:01 15° NNE
SPOT 3 Rocket 4.2 22:00:30 10° S 22:05:40 59° WSW 22:10:45 10° NNW
Cosmos 2315 Rocket 4.0 21:59:33 10° S 22:06:00 86° E 22:12:14 10° N
CZ-4C R/B 4.4 22:05:50 10° S 22:08:34 13° SSE 22:11:08 10° ESE
H-2A R/B 3.5 22:08:20 10° NNW 22:11:43 26° NE 22:22:23 10° E
Cosmos 540 Rocket 4.1 22:11:44 10° S 22:16:40 40° ESE 22:19:09 25° ENE
ATLAS 3B R/B 4.0 22:18:32 19° ENE 22:18:48 19° ENE 22:23:32 10° ESE
USA 238 DEB 4.3 22:16:08 10° N 22:22:49 38° ENE 22:29:26 10° SE
USA 238 4.3 22:16:15 10° N 22:22:55 38° ENE 22:29:32 10° SE
BREEZE-M DEB (TANK) 3.0 22:23:34 10° W 22:27:50 43° SSW 22:29:46 13° SE
Cosmos 1862 3.4 22:24:51 10° S 22:28:56 76° W 22:31:06 26° N
Cosmos 1763 Rocket 3.8 22:25:53 10° SSW 22:31:06 62° WNW 22:34:28 21° N
Atlas Centaur 2 3.4 22:24:02 10° WNW 22:32:02 46° N 22:36:40 25° ENE
Cosmos 1869 Rocket 4.0 22:31:16 10° S 22:35:31 44° E 22:36:30 37° ENE
ERBS 4.0 22:33:05 10° SSW 22:36:03 25° SE 22:37:00 22° ESE
Nimbus 7 Rocket 4.5 22:38:53 31° NE 22:41:47 65° ESE 22:47:45 10° S
Cosmos 1486 Rocket 3.9 22:36:53 10° NNW 22:42:02 85° ENE 22:47:21 10° SSE
H-2A R/B 1.9 22:38:05 10° SSE 22:43:10 70° ENE 22:45:39 30° N
SL-08 R/B 4.4 22:39:25 19° N 22:44:00 82° E 22:50:15 10° S
ERS-1 Rocket 4.3 22:40:26 10° SE 22:44:02 23° E 22:44:02 23° E
SL-16 R/B 3.4 22:39:30 10° NW 22:44:54 44° WSW 22:50:22 10° S
Mayak 0.3 22:46:27 22° ESE 22:46:42 22° ESE 22:49:59 10° SSE
Cosmos 2360 Rocket 2.1 22:44:34 10° NNW 22:50:16 87° ENE 22:56:02 10° SSE
Cosmos 1707 Rocket 3.5 22:55:32 55° NE 22:56:00 59° E 23:00:20 10° SSE
Meteor 1-26 Rocket 4.3 22:56:00 37° NNE 22:58:17 66° E 23:04:00 10° SSE
Lacrosse 5 3.7 22:55:20 10° WSW 22:59:08 21° WNW 23:01:12 17° NNW
Cosmos 1242 Rocket 3.8 22:56:14 10° SSW 22:59:45 38° W 23:00:53 30° NW
Cosmos 1933 3.8 22:58:17 32° NNW 23:00:00 61° W 23:04:09 10° S
Cosmos 1844 Rocket 3.4 22:55:49 10° S 23:01:09 40° ESE 23:02:38 34° E
Helios 1B rocket 2.3 23:00:45 64° ENE 23:01:10 71° ESE 23:05:21 10° S
Cosmos 841 Rocket 4.1 22:56:45 10° SSW 23:01:55 51° WNW 23:04:13 30° NNW
COSMOS 2428 3.2 23:03:03 39° ENE 23:03:07 39° ENE 23:08:25 10° SE
Cosmos 2322 Rocket 3.9 22:59:10 10° WNW 23:04:17 34° WSW 23:09:29 10° S
NOSS 3-2 (C) 4.5 23:03:17 35° NE 23:05:15 40° ENE 23:12:24 10° SE
Cosmos 1745 Rocket 4.0 23:05:15 26° N 23:09:03 83° W 23:15:30 10° S
Cosmos 968 Rocket 3.5 23:08:48 54° NE 23:09:17 56° ENE 23:14:26 10° SSE
ADEOS Rocket 3.9 23:05:50 18° NNW 23:09:30 38° W 23:14:39 10° SSW
SPOT 1/Viking Rocket 4.5 23:05:14 10° SSE 23:09:30 32° E 23:09:30 32° E
Cosmos 1386 Rocket 4.4 23:09:16 34° N 23:12:09 89° E 23:18:19 10° S
Cosmos 1709 Rocket 4.1 23:15:10 47° NE 23:16:36 57° E 23:22:45 10° SSE
Terra 3.7 23:14:49 10° SE 23:16:50 18° ESE 23:16:50 18° ESE
Cosmos 1633 3.8 23:15:36 10° SSW 23:18:56 35° W 23:19:15 34° WNW
Resurs 01 Rocket 3.5 23:15:25 10° S 23:19:18 29° WSW 23:23:08 10° NW
ARGOS 3.9 23:14:23 10° S 23:19:38 52° WSW 23:23:31 18° NW
Cosmos 2322 3.7 23:18:11 27° NNW 23:21:27 80° WSW 23:27:13 10° SSE
Spot 2 Rocket 4.2 23:17:12 10° S 23:22:14 53° WSW 23:25:12 23° NW
Cosmos 1862 Rocket 4.5 23:23:39 37° ESE 23:23:39 37° ESE 23:26:56 10° SSE
MetOp-B 4.1 23:18:53 10° SSE 23:24:20 84° WSW 23:25:59 47° NNW
Meteor 1-25 Rocket 4.2 23:18:41 10° S 23:24:37 86° E 23:25:57 56° NNE
Cosmos 1606 3.0 23:25:39 67° WSW 23:25:39 67° WSW 23:29:27 10° S
CENTAUR R/B 3.8 23:28:52 31° E 23:28:52 31° E 23:34:09 10° SE
Cosmos 2263 Rocket 3.9 23:23:50 10° SW 23:28:18 24° WNW 23:30:54 18° NW
Timation 1 Rocket 4.5 23:24:22 10° SSW 23:30:23 66° WNW 23:31:47 51° NNW
Meteor 2-6 Rocket 4.5 23:33:41 47° E 23:33:41 47° E 23:38:36 10° SSE
Cosmos 2333 Rocket 2.3 23:35:00 57° E 23:35:00 57° E 23:40:31 10° SSE
Cosmos 2219 Rocket 2.1 23:36:23 63° ENE 23:36:23 63° ENE 23:42:02 10° SSE
Cosmos 2278 Rocket 3.7 23:32:52 10° S 23:37:26 24° SE 23:38:32 23° ESE
IRAS Rocket 4.3 23:32:35 10° SSE 23:38:14 77° WSW 23:39:48 49° NNW
Cosmos 2181 Rocket 4.1 23:32:55 10° S 23:39:04 57° E 23:39:48 53° ENE
Meteor 2-21 4.5 23:43:30 57° ENE 23:43:46 58° E 23:49:45 10° SSE
SeaSat 1 2.4 23:39:17 10° SSE 23:44:00 76° ESE 23:44:00 76° ESE
Cosmos 2237 Rocket 3.4 23:51:01 28° ESE 23:51:01 28° ESE 23:54:23 10° SE
Cosmos 1340 Rocket 3.9 23:50:56 40° S 23:50:56 40° S 23:53:36 10° S
Cosmos 1818 4.1 23:47:57 26° WNW 23:50:50 56° SW 23:56:09 10° SSE
